Flag for Switzerland Weather past 2 weeks in Steffisburg, Bern, Switzerland

Now
48 °F

Passing clouds.


Feels Like: 42 °F
Forecast: 37 / 43 °F
Wind: 16 mph from West

Location: Bern / Belp

Current Time: Mar 31, 2015 at 11:18:59 PM

Latest Report: Mar 31, 2015 at 10:50 PM


Visibility: N/A

Pressure: 30.07 "Hg

Humidity: 58%

Dew point: 34 °F

Location of SteffisburgLocation

Historic Weather in Steffisburg — Graph

°F

Steffisburg temperature yesterday

Maximum temperature yesterday: 55 °F (at 3:20 PM)
Minimum temperature yesterday: 48 °F (at 12:50 AM)
Average temperature yesterday: 51 °F

Past Weeks' High & Low Weather Summary

 TemperatureHumidityPressure
High64 °F (Mar 18, 2:20 PM)100% (Mar 17, 1:20 AM)30.27 "Hg (Mar 17, 1:20 AM)
Low28 °F (Mar 28, 3:20 AM)31% (Mar 17, 1:50 PM)29.59 "Hg (Mar 25, 11:50 AM)
Average46 °F76%29.99 "Hg
* Reported Mar 16 9:20 PM — Mar 31 10:20 PM, Steffisburg, Weather by CustomWeather, © 2015

Note: Actual official high and low records may vary slightly from our data, if they occured in-between our weather recording intervals... More about our weather records

Advertising

Steffisburg weather history for previous 24 hours

 ConditionsComfort  
Time TempWeatherWind HumidityBarometerVisibility
10:20 PM
Tue, Mar 31
46 °FPassing clouds.16 mph71%30.07 "HgN/A
9:50 PM48 °FPassing clouds.15 mph66%30.07 "HgN/A
9:20 PM46 °FPartly cloudy.9 mph76%30.07 "HgN/A
8:50 PM48 °FScattered clouds.12 mph71%30.04 "Hg4 mi
8:20 PM46 °FRain showers. Partly sunny.15 mph87%30.04 "Hg3 mi
7:50 PM48 °FSprinkles. Partly sunny.18 mph82%30.04 "Hg5 mi
7:20 PM48 °FLight rain. Partly sunny.14 mph87%30.01 "HgN/A
6:50 PM46 °FRain showers. Partly sunny.21 mph87%30.01 "Hg3 mi
6:20 PM50 °FRain showers. Scattered clouds.17 mph82%29.98 "Hg4 mi
5:50 PM50 °FSprinkles. Broken clouds.14 mph82%29.98 "Hg4 mi
5:20 PM52 °FSprinkles. Partly sunny.16 mph77%29.98 "Hg4 mi
4:50 PM54 °FSprinkles. Partly sunny.25 mph67%29.95 "HgN/A
4:20 PM55 °FPartly sunny.22 mph59%29.95 "HgN/A
3:50 PM57 °FRain. Broken clouds.21 mph59%29.92 "HgN/A
3:20 PM57 °FBroken clouds.18 mph59%29.95 "HgN/A
2:50 PM55 °FBroken clouds.16 mph63%29.95 "HgN/A
2:20 PM55 °FSprinkles. Broken clouds.24 mph72%29.95 "Hg6 mi
1:50 PM57 °FBroken clouds.22 mph63%29.95 "HgN/A
1:20 PM59 °FPartly sunny.22 mph59%29.95 "HgN/A
12:50 PM59 °FPartly sunny.17 mph51%29.95 "HgN/A
12:20 PM59 °FScattered clouds.20 mph55%29.92 "HgN/A
11:50 AM59 °FSprinkles. Partly sunny.22 mph51%29.92 "HgN/A
11:20 AM59 °FPartly sunny.14 mph51%29.92 "HgN/A
10:50 AM59 °FPartly sunny.15 mph48%29.92 "HgN/A
10:20 AM59 °FScattered clouds.14 mph55%29.92 "HgN/A
9:50 AM59 °FScattered clouds.14 mph55%29.92 "HgN/A
9:20 AM57 °FPartly sunny.15 mph59%29.95 "HgN/A
8:50 AM59 °FPartly sunny.15 mph55%29.95 "HgN/A
8:20 AM57 °FScattered clouds.14 mph59%29.92 "HgN/A
7:50 AM59 °FPassing clouds.16 mph59%29.92 "HgN/A
7:20 AM59 °FPassing clouds.10 mph59%29.92 "HgN/A
6:50 AM59 °FPassing clouds.13 mph59%29.92 "HgN/A
6:20 AM59 °FPassing clouds.9 mph59%29.92 "HgN/A
5:50 AM59 °FPassing clouds.9 mph59%29.92 "HgN/A
5:20 AM55 °FPassing clouds.8 mph67%29.92 "HgN/A
4:50 AM46 °FMostly cloudy.6 mph93%29.92 "HgN/A
4:20 AM48 °FPartly cloudy.9 mph82%29.95 "HgN/A
3:50 AM54 °FSprinkles. Passing clouds.9 mph72%29.95 "HgN/A
3:20 AM46 °FPartly cloudy.5 mph87%29.98 "HgN/A
2:50 AM46 °FPartly cloudy.8 mph93%29.98 "HgN/A
2:20 AM46 °FPartly cloudy.5 mph93%29.98 "HgN/A
1:20 AM46 °FLight rain. Passing clouds.7 mph93%30.01 "HgN/A
12:50 AM46 °FLight rain. Partly cloudy.9 mph93%30.04 "HgN/A
12:20 AM48 °FSprinkles. Partly cloudy.9 mph87%30.04 "HgN/A
11:50 PM
Mon, Mar 30
50 °FDrizzle. Overcast.5 mph76%30.04 "HgN/A
11:20 PM50 °FDrizzle. Mostly cloudy.6 mph76%30.04 "HgN/A
Weather by CustomWeather, © 2015

See weather overviewHow to use our weather pages